Regional Weather Roundup
Issued by NWS Charleston, SC

Current Version | Previous Version | Graphics & Text | Print | Product List | Glossary On
Versions: 1 2 3 4 5 6 7 8 9 10 11 12 13 14 15 16 17 18 19 20 21 22 23 24 25 26 27 28 29 30 31 32 33 34 35 36 37 38 39 40 41 42 43 44 45 46 47 48 49 50
000
ASUS42 KCHS 271027
RWRCHS

REGIONAL WEATHER ROUNDUP
NATIONAL WEATHER SERVICE CHARLESTON SC
600 AM EDT TUE JUN 27 2017

NOTE: "FAIR" INDICATES FEW OR NO CLOUDS BELOW 12,000 FEET WITH NO
SIGNIFICANT WEATHER AND/OR OBSTRUCTIONS TO VISIBILITY.

NOT ALL STATIONS ARE QUALITY CONTROLLED. USE DATA WITH CAUTION...
ESPECIALLY DEWPOINT OBSERVATIONS.

SCZ027-030-031-034>040-042>050-271100-
...SOUTHEAST SOUTH CAROLINA...

CITY           SKY/WX    TMP DP  RH WIND       PRES   REMARKS
N CHARLESTON   MOCLDY    70  66  87 CALM      30.03R
WATERFRONT PRK   N/A     75  69  81 CALM      30.00S
JOHNS ISLAND   FAIR      72  70  94 CALM      30.02F
PINOPOLIS        N/A     75  70  83 VRB2      29.95R
MONCKS CORNER  FAIR      66  66 100 CALM      30.03S
SUMMERVILLE    CLOUDY    70  68  94 CALM      30.04S
BEAUFORT MCAS  MOCLDY    75  73  93 CALM      30.02F
BEAUFORT ARPT  FAIR      73  72  94 CALM      30.02S
HILTON HEAD IS NOT AVBL
WALTERBORO     CLOUDY    68  66  94 CALM      30.05R
ALLENDALE      FAIR      70  68  94 CALM      30.03S

...SOUTHERN MIDLANDS AND PEE DEE...

CITY           SKY/WX    TMP DP  RH WIND       PRES   REMARKS
GEORGETOWN     CLOUDY    68  66  94 CALM      30.04S
KINGSTREE      FAIR      63  61  94 CALM      30.04R
ORANGEBURG     CLEAR     64  63  96 CALM      30.04S
BARNWELL       FAIR      66  64  94 CALM      30.05R
AIKEN          FAIR      64  63  94 CALM      30.08S
MANNING        FAIR      63  63 100 CALM      30.04S
COLUMBIA       MOCLDY    68  62  81 CALM      30.03S
SUMTER         PTCLDY    68  63  83 CALM      30.02R
FLORENCE       PTCLDY    66  64  93 CALM      30.04R
MYRTLE BEACH   NOT AVBL
N MYRTLE BEACH MOCLDY    67  64  90 CALM      30.03R

$$

GAZ063-065-086>088-099>101-113>116-118-119-134>141-150-271100-
...SOUTHEAST GEORGIA...

CITY           SKY/WX    TMP DP  RH WIND       PRES   REMARKS
SAVANNAH ARPT  CLOUDY    73  71  93 N3        30.02F
HUNTER AAF     CLOUDY    75  73  94 CALM      30.00S
FORT STEWART   CLOUDY    73  72  94 CALM      30.00S
STATESBORO     CLOUDY    73  32  22 CALM      30.04R
SYLVANIA       CLOUDY    72  72 100 CALM      30.05R
CLAXTON        FAIR      69  69  99 CALM      30.03S FOG

...CSRA...CENTRAL AND FAR SOUTHEAST GEORGIA...

CITY           SKY/WX    TMP DP  RH WIND       PRES   REMARKS
THOMSON        PTCLDY    65  62  91 CALM      30.10S
AUGUSTA-BUSH   MOCLDY    65  63  93 CALM      30.04R FOG
AUGUSTA-DANIEL MOCLDY    72  60  66 NW3       30.05S
SWAINSBORO     FAIR      70  70 100 CALM      30.05S
VIDALIA        CLOUDY    72  72 100 CALM      30.04S
EASTMAN        FAIR      69  69 100 CALM      30.06S
HAZLEHURST     FAIR      73  73 100 CALM      30.03R FOG
ALMA           PTCLDY    72  70  93 CALM      30.02S FOG
WAYCROSS       PTCLDY    74  74 100 CALM      30.03R
JESUP          CLOUDY    72  70  94 CALM      30.03S FOG
BAXLEY         FOG       72  72 100 CALM      30.03S VSB 1/4
BRUNSWICK      CLOUDY    73  73 100 CALM      30.02S FOG
SAINT SIMONS   CLOUDY    76  75  97 NW5       30.01R

$$

SCZ027-028-034-036>038-045-046-048>050-GAZ119-141-271100-
...LAKE AND SUPPLEMENTAL COASTAL OBSERVATIONS...

STATION/POSITION TIME  TEMP    WIND        PRES    WAVE   SWELL
                       AIR SEA DIR/SP/G            HT/PER HT/PER/DIR
                 (UTC) (F)     (DEG/KT/KT) (MB)    (FT/S) (FT/S/D)
WINYAH BAY       0945   69     310/  2     1017.0R
LAKE MURRAY      1020   71      CALM  /  1 1016.3
ACE BASIN NERRS  0945   72        CALM     1017.0S
FORT PULASKI     1000   77 84   20/  5/  7 1016.6
SAPELO ISLAND    1000   76     340/  4     1016.0

$$

ANZ835-935-AMZ111-154-330-350-352-354-370-450-454-472-271100-
...C-MAN AND BUOY OBSERVATIONS...

STATION/POSITION TIME  TEMP    WIND        PRES    WAVE   SWELL
                       AIR SEA DIR/SP/G            HT/PER HT/PER/DIR
                 (UTC) (F)     (DEG/KT/KT) (MB)    (FT/S) (FT/S/D)
BUOY 41004       1010   79 81   10/  8/ 10 1016.0
BUOY 41008       0950   79 82   CALM  /  2 1015.8F   2/ 5   2/ 30/ 5
FOLLY BEACH CMAN 1000   73     300/  3/  4 1017.2R
CAPERS NEARSHORE 1008   84 83  360/  6/  8 1016.5S
FRIPP NEARSHORE  1008   80 83   30/  6/  8 1016.1F


STATION/POSITION TIME  TEMP    WIND        PRES    WAVE   SWELL
                       AIR SEA DIR/SP/G            HT/PER HT/PER/DIR
                 (UTC) (F)     (DEG/KT/KT) (MB)    (FT/S) (FT/S/D)
5E ST. MARYS GA  1000      80                N/A     2/ 8
FRYING PAN BUOY  1010   78 80   10/  6/  8 1016.1
BUOY 41025       0950   77 81  350/  8/  8 1015.8S   2/ 8   2/120/ 8
CAPE LOOKOUT NC  1000   75     350/  4/  5 1015.9R
BUOY 41002       0950   76 80  230/ 17/ 23 1016.0R   3/ 6   2/180/12
BUOY 41010       1010   83 83  190/ 12/ 16 1015.4
ST AUGUSTINE FL  1000   75 78  240/  2/  3 1015.5F


$$




USA.gov is the U.S. government's official web portal to all federal, state and local government web resources and services.